Time,TemperatureF,DewpointF,PressureIn,WindDirection,WindDirectionDegrees,WindSpeedMPH,WindSpeedGustMPH,Humidity,HourlyPrecipIn,Conditions,Clouds,dailyrainin,SoftwareType,DateUTC
2013-01-14 00:12:00,-12.2,-20.0,30.82,WSW,256,2.0,2.0,67,0.00,,,0.00,weatherlink.com 1.10,2013-01-14 07:12:00,
2013-01-14 00:43:00,-11.7,-20.0,30.81,WSW,249,5.0,6.0,66,0.00,,,0.00,weatherlink.com 1.10,2013-01-14 07:43:00,
2013-01-14 00:58:00,-11.5,-20.0,30.81,West,280,5.0,6.0,67,0.00,,,0.00,weatherlink.com 1.10,2013-01-14 07:58:00,
2013-01-14 01:13:00,-10.5,-20.0,30.81,WNW,289,5.0,8.0,64,0.00,,,0.00,weatherlink.com 1.10,2013-01-14 08:13:00,
2013-01-14 01:28:00,-9.3,-18.0,30.81,WNW,293,4.0,8.0,64,0.00,,,0.00,weatherlink.com 1.10,2013-01-14 08:28:00,
2013-01-14 01:43:00,-9.3,-18.0,30.81,West,276,3.0,5.0,64,0.00,,,0.00,weatherlink.com 1.10,2013-01-14 08:43:00,
2013-01-14 01:58:00,-11.0,-20.0,30.81,West,276,1.0,5.0,65,0.00,,,0.00,weatherlink.com 1.10,2013-01-14 08:58:00,
2013-01-14 02:13:00,-11.7,-20.0,30.82,West,276,0.0,7.0,66,0.00,,,0.00,weatherlink.com 1.10,2013-01-14 09:13:00,
2013-01-14 02:28:00,-10.3,-19.0,30.83,West,268,3.0,8.0,64,0.00,,,0.00,weatherlink.com 1.10,2013-01-14 09:28:00,
2013-01-14 02:43:00,-11.5,-20.0,30.83,West,280,3.0,5.0,65,0.00,,,0.00,weatherlink.com 1.10,2013-01-14 09:43:00,
2013-01-14 02:58:00,-11.7,-20.0,30.84,West,281,1.0,5.0,66,0.00,,,0.00,weatherlink.com 1.10,2013-01-14 09:58:00,
2013-01-14 03:13:00,-11.5,-20.0,30.85,WNW,282,0.0,5.0,66,0.00,,,0.00,weatherlink.com 1.10,2013-01-14 10:13:00,
2013-01-14 03:28:00,-11.7,-20.0,30.86,West,281,1.0,4.0,66,0.00,,,0.00,weatherlink.com 1.10,2013-01-14 10:28:00,
2013-01-14 03:43:00,-11.2,-19.0,30.86,West,281,1.0,3.0,67,0.00,,,0.00,weatherlink.com 1.10,2013-01-14 10:43:00,
2013-01-14 03:59:00,-10.7,-19.0,30.85,WNW,282,0.0,3.0,67,0.00,,,0.00,weatherlink.com 1.10,2013-01-14 10:59:00,
2013-01-14 04:14:00,-9.8,-18.0,30.85,West,281,1.0,4.0,67,0.00,,,0.00,weatherlink.com 1.10,2013-01-14 11:14:00,
2013-01-14 04:29:00,-9.3,-18.0,30.85,West,281,3.0,4.0,67,0.00,,,0.00,weatherlink.com 1.10,2013-01-14 11:29:00,
2013-01-14 04:44:00,-8.6,-17.0,30.85,West,281,0.0,4.0,68,0.00,,,0.00,weatherlink.com 1.10,2013-01-14 11:44:00,
2013-01-14 04:59:00,-7.7,-16.0,30.86,WNW,282,0.0,0.0,68,0.00,,,0.00,weatherlink.com 1.10,2013-01-14 11:59:00,
2013-01-14 05:14:00,-7.9,-16.0,30.86,West,281,1.0,2.0,67,0.00,,,0.00,weatherlink.com 1.10,2013-01-14 12:14:00,
2013-01-14 05:29:00,-7.5,-15.0,30.86,WNW,282,0.0,3.0,68,0.00,,,0.00,weatherlink.com 1.10,2013-01-14 12:29:00,
2013-01-14 05:44:00,-7.0,-15.0,30.87,WNW,282,1.0,2.0,69,0.00,,,0.00,weatherlink.com 1.10,2013-01-14 12:44:00,
2013-01-14 05:59:00,-6.8,-15.0,30.87,WNW,282,1.0,2.0,69,0.00,,,0.00,weatherlink.com 1.10,2013-01-14 12:59:00,
2013-01-14 06:14:00,-7.0,-15.0,30.88,WNW,282,0.0,3.0,68,0.00,,,0.00,weatherlink.com 1.10,2013-01-14 13:14:00,
2013-01-14 06:29:00,-7.7,-15.0,30.89,WNW,282,1.0,3.0,69,0.00,,,0.00,weatherlink.com 1.10,2013-01-14 13:29:00,
2013-01-14 06:44:00,-8.4,-16.0,30.89,WNW,282,0.0,2.0,70,0.00,,,0.00,weatherlink.com 1.10,2013-01-14 13:44:00,
2013-01-14 06:59:00,-8.9,-16.0,30.89,West,281,2.0,3.0,70,0.00,,,0.00,weatherlink.com 1.10,2013-01-14 13:59:00,
2013-01-14 07:14:00,-8.4,-16.0,30.89,West,271,2.0,4.0,69,0.00,,,0.00,weatherlink.com 1.10,2013-01-14 14:14:00,
2013-01-14 07:30:00,-8.4,-16.0,30.89,West,271,1.0,3.0,68,0.00,,,0.00,weatherlink.com 1.10,2013-01-14 14:30:00,
2013-01-14 07:45:00,-9.6,-17.0,30.89,West,271,4.0,4.0,69,0.00,,,0.00,weatherlink.com 1.10,2013-01-14 14:45:00,
2013-01-14 08:00:00,-9.6,-18.0,30.89,West,279,2.0,5.0,67,0.00,,,0.00,weatherlink.com 1.10,2013-01-14 15:00:00,
2013-01-14 08:15:00,-11.2,-19.0,30.90,West,279,2.0,3.0,68,0.00,,,0.00,weatherlink.com 1.10,2013-01-14 15:15:00,
2013-01-14 08:30:00,-11.5,-19.0,30.90,West,280,0.0,1.0,69,0.00,,,0.00,weatherlink.com 1.10,2013-01-14 15:30:00,
2013-01-14 08:45:00,-11.0,-19.0,30.90,West,279,2.0,3.0,68,0.00,,,0.00,weatherlink.com 1.10,2013-01-14 15:45:00,
2013-01-14 09:00:00,-9.3,-17.0,30.90,West,279,0.0,1.0,68,0.00,,,0.00,weatherlink.com 1.10,2013-01-14 16:00:00,
2013-01-14 09:15:00,-6.3,-14.0,30.90,West,279,0.0,0.0,70,0.00,,,0.00,weatherlink.com 1.10,2013-01-14 16:15:00,
2013-01-14 09:30:00,-3.3,-12.0,30.90,West,279,0.0,0.0,66,0.00,,,0.00,weatherlink.com 1.10,2013-01-14 16:30:00,
2013-01-14 09:45:00,-0.6,-11.0,30.91,West,280,0.0,0.0,63,0.00,,,0.00,weatherlink.com 1.10,2013-01-14 16:45:00,
2013-01-14 10:00:00,-0.4,-10.0,30.90,West,279,0.0,1.0,65,0.00,,,0.00,weatherlink.com 1.10,2013-01-14 17:00:00,
2013-01-14 10:15:00,0.0,-9.0,30.89,West,279,0.0,2.0,67,0.00,,,0.00,weatherlink.com 1.10,2013-01-14 17:15:00,
2013-01-14 10:30:00,2.0,-7.0,30.90,West,279,0.0,2.0,67,0.00,,,0.00,weatherlink.com 1.10,2013-01-14 17:30:00,
2013-01-14 10:45:00,3.2,-7.0,30.90,ENE,66,2.0,3.0,63,0.00,,,0.00,weatherlink.com 1.10,2013-01-14 17:45:00,
2013-01-14 11:01:00,-0.8,-10.0,30.89,East,98,3.0,6.0,64,0.00,,,0.00,weatherlink.com 1.10,2013-01-14 18:01:00,
2013-01-14 11:16:00,0.5,-8.0,30.88,East,99,0.0,2.0,66,0.00,,,0.00,weatherlink.com 1.10,2013-01-14 18:16:00,
2013-01-14 11:31:00,2.2,-8.0,30.87,East,99,1.0,1.0,64,0.00,,,0.00,weatherlink.com 1.10,2013-01-14 18:31:00,
2013-01-14 11:46:00,1.3,-8.0,30.86,East,99,2.0,3.0,65,0.00,,,0.00,weatherlink.com 1.10,2013-01-14 18:46:00,
2013-01-14 12:01:00,1.8,-8.0,30.85,East,98,1.0,3.0,65,0.00,,,0.00,weatherlink.com 1.10,2013-01-14 19:01:00,
2013-01-14 12:16:00,3.2,-6.0,30.84,East,98,0.0,2.0,66,0.00,,,0.00,weatherlink.com 1.10,2013-01-14 19:16:00,
2013-01-14 12:31:00,4.5,-6.0,30.83,East,98,2.0,3.0,63,0.00,,,0.00,weatherlink.com 1.10,2013-01-14 19:31:00,
2013-01-14 12:46:00,2.2,-7.0,30.82,East,98,3.0,5.0,65,0.00,,,0.00,weatherlink.com 1.10,2013-01-14 19:46:00,
2013-01-14 13:01:00,2.0,-7.0,30.82,ENE,73,2.0,6.0,66,0.00,,,0.00,weatherlink.com 1.10,2013-01-14 20:01:00,
2013-01-14 13:16:00,1.8,-7.0,30.81,ENE,73,2.0,4.0,66,0.00,,,0.00,weatherlink.com 1.10,2013-01-14 20:16:00,
2013-01-14 13:31:00,2.8,-6.0,30.81,ENE,73,0.0,3.0,66,0.00,,,0.00,weatherlink.com 1.10,2013-01-14 20:31:00,
2013-01-14 14:01:00,6.5,-4.0,30.79,ENE,73,0.0,1.0,63,0.00,,,0.00,weatherlink.com 1.10,2013-01-14 21:01:00,
2013-01-14 14:17:00,6.1,-4.0,30.79,ENE,73,2.0,3.0,64,0.00,,,0.00,weatherlink.com 1.10,2013-01-14 21:17:00,
2013-01-14 14:32:00,5.4,-4.0,30.79,East,101,4.0,7.0,65,0.00,,,0.00,weatherlink.com 1.10,2013-01-14 21:32:00,
2013-01-14 14:47:00,4.1,-5.0,30.80,ENE,59,4.0,6.0,65,0.00,,,0.00,weatherlink.com 1.10,2013-01-14 21:47:00,
2013-01-14 15:02:00,4.5,-4.0,30.80,NNE,27,0.0,5.0,68,0.00,,,0.00,weatherlink.com 1.10,2013-01-14 22:02:00,
2013-01-14 15:17:00,7.4,-3.0,30.80,NNE,27,0.0,2.0,64,0.00,,,0.00,weatherlink.com 1.10,2013-01-14 22:17:00,
2013-01-14 15:32:00,7.6,-3.0,30.79,NNE,27,0.0,2.0,62,0.00,,,0.00,weatherlink.com 1.10,2013-01-14 22:32:00,
2013-01-14 15:47:00,7.6,-4.0,30.78,NNE,27,0.0,0.0,60,0.00,,,0.00,weatherlink.com 1.10,2013-01-14 22:47:00,
2013-01-14 16:02:00,4.8,-5.0,30.77,ESE,103,2.0,5.0,65,0.00,,,0.00,weatherlink.com 1.10,2013-01-14 23:02:00,
2013-01-14 16:17:00,3.5,-5.0,30.77,ESE,103,5.0,7.0,67,0.00,,,0.00,weatherlink.com 1.10,2013-01-14 23:17:00,
2013-01-14 16:32:00,1.5,-8.0,30.77,ENE,75,3.0,8.0,66,0.00,,,0.00,weatherlink.com 1.10,2013-01-14 23:32:00,
2013-01-14 16:47:00,-1.6,-10.0,30.78,NE,36,1.0,3.0,69,0.00,,,0.00,weatherlink.com 1.10,2013-01-14 23:47:00,
2013-01-14 17:02:00,-2.4,-9.0,30.79,ENE,64,0.0,3.0,72,0.00,,,0.00,weatherlink.com 1.10,2013-01-15 00:02:00,
2013-01-14 17:17:00,-2.6,-10.0,30.80,ENE,64,1.0,2.0,72,0.00,,,0.00,weatherlink.com 1.10,2013-01-15 00:17:00,
2013-01-14 17:32:00,-3.5,-10.0,30.81,ENE,64,1.0,2.0,73,0.00,,,0.00,weatherlink.com 1.10,2013-01-15 00:32:00,
2013-01-14 17:48:00,-4.3,-11.0,30.82,ENE,64,0.0,2.0,73,0.00,,,0.00,weatherlink.com 1.10,2013-01-15 00:48:00,
2013-01-14 18:03:00,-5.0,-12.0,30.83,ENE,64,1.0,2.0,73,0.00,,,0.00,weatherlink.com 1.10,2013-01-15 01:03:00,
2013-01-14 18:18:00,-4.6,-11.0,30.83,NE,54,1.0,2.0,73,0.00,,,0.00,weatherlink.com 1.10,2013-01-15 01:18:00,
2013-01-14 18:33:00,-4.6,-12.0,30.82,ENE,66,1.0,3.0,72,0.00,,,0.00,weatherlink.com 1.10,2013-01-15 01:33:00,
2013-01-14 18:48:00,-4.6,-11.0,30.81,ENE,68,0.0,3.0,73,0.00,,,0.00,weatherlink.com 1.10,2013-01-15 01:48:00,
2013-01-14 19:03:00,-5.0,-12.0,30.81,NNE,31,2.0,3.0,73,0.00,,,0.00,weatherlink.com 1.10,2013-01-15 02:03:00,
2013-01-14 19:18:00,-5.2,-12.0,30.81,NNE,31,0.0,1.0,73,0.00,,,0.00,weatherlink.com 1.10,2013-01-15 02:18:00,
2013-01-14 19:33:00,-5.9,-13.0,30.81,NNE,31,2.0,2.0,72,0.00,,,0.00,weatherlink.com 1.10,2013-01-15 02:33:00,
2013-01-14 19:48:00,-7.2,-14.0,30.81,NNE,31,0.0,1.0,72,0.00,,,0.00,weatherlink.com 1.10,2013-01-15 02:48:00,
2013-01-14 20:03:00,-9.1,-16.0,30.81,WSW,249,1.0,4.0,71,0.00,,,0.00,weatherlink.com 1.10,2013-01-15 03:03:00,
2013-01-14 20:18:00,-8.9,-16.0,30.81,SW,234,4.0,5.0,72,0.00,,,0.00,weatherlink.com 1.10,2013-01-15 03:18:00,
2013-01-14 20:33:00,-8.2,-15.0,30.82,WSW,243,2.0,7.0,72,0.00,,,0.00,weatherlink.com 1.10,2013-01-15 03:33:00,
2013-01-14 20:48:00,-7.9,-15.0,30.82,WSW,243,2.0,4.0,72,0.00,,,0.00,weatherlink.com 1.10,2013-01-15 03:48:00,
2013-01-14 21:04:00,-6.5,-13.0,30.84,WSW,243,2.0,5.0,72,0.00,,,0.00,weatherlink.com 1.10,2013-01-15 04:04:00,
2013-01-14 21:19:00,-5.0,-12.0,30.83,WSW,243,1.0,4.0,73,0.00,,,0.00,weatherlink.com 1.10,2013-01-15 04:19:00,
2013-01-14 21:34:00,-3.3,-10.0,30.83,WSW,243,2.0,3.0,74,0.00,,,0.00,weatherlink.com 1.10,2013-01-15 04:34:00,
2013-01-14 21:49:00,-2.2,-9.0,30.84,ENE,58,1.0,4.0,72,0.00,,,0.00,weatherlink.com 1.10,2013-01-15 04:49:00,
2013-01-14 22:04:00,-2.2,-9.0,30.84,ENE,58,0.0,2.0,73,0.00,,,0.00,weatherlink.com 1.10,2013-01-15 05:04:00,
2013-01-14 22:19:00,-1.8,-8.0,30.85,ENE,58,0.0,3.0,74,0.00,,,0.00,weatherlink.com 1.10,2013-01-15 05:19:00,
2013-01-14 22:34:00,-1.4,-8.0,30.84,ENE,58,2.0,3.0,73,0.00,,,0.00,weatherlink.com 1.10,2013-01-15 05:34:00,
2013-01-14 22:49:00,-1.0,-8.0,30.83,ENE,58,1.0,3.0,73,0.00,,,0.00,weatherlink.com 1.10,2013-01-15 05:49:00,
2013-01-14 23:04:00,-1.4,-8.0,30.85,East,84,5.0,6.0,73,0.00,,,0.00,weatherlink.com 1.10,2013-01-15 06:04:00,
2013-01-14 23:19:00,-2.4,-9.0,30.86,East,100,1.0,6.0,72,0.00,,,0.00,weatherlink.com 1.10,2013-01-15 06:19:00,
2013-01-14 23:34:00,-2.4,-9.0,30.87,East,100,2.0,2.0,72,0.00,,,0.00,weatherlink.com 1.10,2013-01-15 06:34:00,
2013-01-14 23:49:00,-2.0,-9.0,30.87,SSW,209,2.0,5.0,72,0.00,,,0.00,weatherlink.com 1.10,2013-01-15 06:49:00,